QPF
0.24 0.22 0.28 0.39 0.40 0.33 0.18 0.11 0.09 0.10 0.11 0.08 0.05 0.02 0.03 0.04 0.05 0.07 0.14 0.14 0.11 0.08 0.08 0.12 0.15 0.14 0.14 0.14 0.13 0.10 0.08 0.05 0.03 0.02 0.01 0.01 0.00 0.00 0.00 0.00 0.00 0.00 0.00 0.00 0.00 0.00 0.00 0.00 0.00
0.16 0.27 0.46 0.48 0.27 0.14 0.09 0.08 0.08 0.10 0.09 0.06 0.02 0.01 0.01 0.02 0.04 0.08 0.16 0.21 0.17 0.16 0.14 0.14 0.18 0.18 0.17 0.17 0.16 0.14 0.11 0.08 0.05 0.04 0.02 0.01 0.01 0.01 0.01 0.01 0.00 0.00 0.00 0.00 0.00 0.00 0.00 0.00 0.00
0.17 0.36 0.56 0.44 0.20 0.09 0.06 0.08 0.11 0.13 0.07 0.05 0.01 0.00 0.00 0.01 0.04 0.09 0.18 0.22 0.25 0.23 0.19 0.20 0.22 0.22 0.20 0.20 0.19 0.18 0.16 0.14 0.11 0.07 0.05 0.03 0.03 0.02 0.01 0.01 0.01 0.01 0.01 0.00 0.00 0.00 0.00 0.00 0.01
0.20 0.37 0.36 0.21 0.11 0.07 0.06 0.08 0.10 0.09 0.05 0.03 0.01 0.01 0.00 0.02 0.05 0.07 0.13 0.17 0.23 0.25 0.21 0.24 0.27 0.26 0.23 0.21 0.21 0.21 0.20 0.18 0.15 0.13 0.10 0.08 0.06 0.05 0.04 0.03 0.03 0.02 0.01 0.01 0.01 0.01 0.01 0.01 0.01
0.24 0.31 0.23 0.12 0.07 0.07 0.07 0.07 0.08 0.06 0.04 0.01 0.01 0.01 0.00 0.01 0.06 0.07 0.09 0.12 0.14 0.13 0.13 0.15 0.20 0.22 0.24 0.24 0.23 0.21 0.21 0.20 0.19 0.18 0.17 0.14 0.11 0.10 0.08 0.06 0.05 0.03 0.02 0.02 0.02 0.02 0.02 0.03 0.03
0.25 0.19 0.12 0.07 0.06 0.06 0.06 0.05 0.04 0.03 0.03 0.02 0.01 0.01 0.01 0.01 0.04 0.07 0.08 0.10 0.11 0.10 0.09 0.07 0.11 0.12 0.14 0.16 0.19 0.20 0.21 0.21 0.20 0.19 0.18 0.18 0.15 0.13 0.11 0.10 0.10 0.08 0.06 0.05 0.04 0.04 0.03 0.03 0.03
0.19 0.10 0.06 0.06 0.06 0.07 0.06 0.04 0.04 0.03 0.03 0.02 0.01 0.01 0.01 0.01 0.02 0.03 0.03 0.04 0.06 0.07 0.07 0.06 0.07 0.07 0.08 0.09 0.10 0.12 0.14 0.17 0.17 0.16 0.15 0.16 0.15 0.13 0.13 0.12 0.11 0.10 0.09 0.08 0.07 0.06 0.06 0.05 0.04
0.14 0.09 0.05 0.05 0.05 0.05 0.04 0.04 0.03 0.04 0.03 0.02 0.01 0.00 0.00 0.00 0.01 0.01 0.01 0.02 0.02 0.03 0.02 0.02 0.02 0.03 0.03 0.04 0.06 0.07 0.09 0.11 0.13 0.13 0.13 0.13 0.13 0.12 0.12 0.12 0.10 0.11 0.11 0.12 0.12 0.10 0.09 0.08 0.06
0.13 0.09 0.06 0.04 0.04 0.04 0.04 0.03 0.03 0.03 0.03 0.02 0.01 0.01 0.00 0.00 0.01 0.01 0.01 0.01 0.01 0.01 0.01 0.00 0.00 0.00 0.01 0.01 0.01 0.02 0.04 0.05 0.08 0.11 0.12 0.11 0.07 0.06 0.07 0.08 0.11 0.14 0.15 0.15 0.14 0.14 0.12 0.11 0.10
0.12 0.08 0.06 0.05 0.05 0.05 0.04 0.04 0.03 0.03 0.02 0.02 0.01 0.00 0.00 0.00 0.01 0.01 0.01 0.00 0.00 0.00 0.00 0.00 0.00 0.00 0.00 0.00 0.00 0.01 0.01 0.01 0.02 0.04 0.05 0.06 0.06 0.06 0.06 0.05 0.10 0.13 0.14 0.15 0.16 0.16 0.15 0.13 0.09
0.08 0.05 0.03 0.04 0.04 0.05 0.05 0.04 0.03 0.03 0.02 0.01 0.01 0.00 0.01 0.01 0.01 0.00 0.00 0.00 0.00 0.00 0.00 0.00 0.00 0.00 0.00 0.00 0.00 0.00 0.00 0.00 0.00 0.01 0.01 0.03 0.05 0.06 0.06 0.05 0.06 0.08 0.10 0.10 0.12 0.13 0.11 0.08 0.07
0.08 0.04 0.03 0.04 0.04 0.06 0.06 0.04 0.04 0.03 0.02 0.01 0.01 0.01 0.01 0.01 0.00 0.00 0.00 0.00 0.00 0.00 0.00 0.00 0.00 0.00 0.00 0.00 0.00 0.00 0.00 0.00 0.00 0.00 0.00 0.01 0.02 0.04 0.04 0.05 0.06 0.07 0.07 0.09 0.10 0.10 0.09 0.09 0.07
0.08 0.06 0.05 0.06 0.07 0.08 0.07 0.06 0.04 0.03 0.02 0.01 0.01 0.01 0.01 0.00 0.00 0.00 0.00 0.00 0.00 0.00 0.00 0.00 0.00 0.00 0.00 0.00 0.00 0.00 0.00 0.00 0.00 0.00 0.00 0.00 0.01 0.02 0.03 0.03 0.04 0.07 0.07 0.09 0.11 0.11 0.10 0.09 0.09
0.07 0.07 0.07 0.07 0.07 0.06 0.05 0.05 0.05 0.03 0.02 0.02 0.01 0.01 0.00 0.00 0.00 0.00 0.00 0.00 0.00 0.00 0.00 0.00 0.00 0.00 0.00 0.00 0.00 0.00 0.00 0.00 0.00 0.00 0.00 0.00 0.01 0.01 0.02 0.03 0.04 0.05 0.06 0.05 0.06 0.07 0.08 0.08 0.07
0.07 0.08 0.06 0.04 0.05 0.05 0.04 0.03 0.02 0.02 0.02 0.02 0.01 0.00 0.00 0.00 0.00 0.00 0.00 0.00 0.00 0.00 0.00 0.00 0.00 0.00 0.00 0.00 0.00 0.00 0.00 0.00 0.00 0.00 0.00 0.00 0.01 0.01 0.02 0.02 0.03 0.04 0.04 0.05 0.05 0.05 0.06 0.07 0.07
0.10 0.08 0.06 0.04 0.03 0.03 0.02 0.01 0.00 0.01 0.01 0.01 0.00 0.00 0.00 0.00 0.00 0.00 0.00 0.00 0.00 0.00 0.00 0.00 0.00 0.00 0.00 0.00 0.00 0.00 0.00 0.00 0.00 0.00 0.00 0.01 0.01 0.01 0.01 0.02 0.03 0.03 0.05 0.06 0.07 0.07 0.07 0.08 0.09
0.10 0.06 0.03 0.02 0.02 0.01 0.01 0.00 0.00 0.00 0.00 0.00 0.00 0.00 0.00 0.00 0.00 0.00 0.00 0.00 0.00 0.00 0.00 0.00 0.00 0.00 0.00 0.00 0.00 0.00 0.00 0.00 0.00 0.00 0.01 0.01 0.01 0.01 0.01 0.01 0.02 0.02 0.03 0.05 0.08 0.11 0.10 0.09 0.10
0.05 0.03 0.01 0.01 0.01 0.01 0.00 0.00 0.00 0.00 0.00 0.00 0.00 0.00 0.00 0.00 0.00 0.00 0.00 0.00 0.00 0.00 0.00 0.00 0.00 0.00 0.00 0.00 0.00 0.00 0.00 0.00 0.00 0.01 0.01 0.01 0.01 0.01 0.01 0.02 0.03 0.03 0.04 0.04 0.05 0.08 0.09 0.08 0.08
0.03 0.02 0.01 0.00 0.00 0.00 0.00 0.00 0.00 0.00 0.01 0.00 0.00 0.00 0.00 0.00 0.00 0.00 0.00 0.00 0.00 0.00 0.00 0.00 0.00 0.00 0.00 0.00 0.00 0.00 0.00 0.01 0.01 0.00 0.01 0.00 0.01 0.02 0.02 0.01 0.01 0.03 0.04 0.05 0.04 0.04 0.06 0.06 0.06
0.03 0.02 0.01 0.00 0.00 0.00 0.00 0.00 0.00 0.00 0.00 0.00 0.00 0.00 0.00 0.00 0.00 0.00 0.00 0.00 0.00 0.00 0.00 0.00 0.00 0.00 0.00 0.00 0.00 0.00 0.00 0.00 0.01 0.01 0.01 0.01 0.01 0.01 0.01 0.01 0.01 0.01 0.02 0.03 0.03 0.03 0.04 0.05 0.07
0.02 0.01 0.00 0.00 0.00 0.00 0.00 0.00 0.00 0.00 0.00 0.00 0.00 0.00 0.00 0.00 0.00 0.00 0.00 0.00 0.00 0.00 0.00 0.00 0.00 0.00 0.00 0.00 0.00 0.00 0.00 0.00 0.00 0.01 0.01 0.01 0.01 0.01 0.01 0.01 0.01 0.01 0.01 0.02 0.01 0.01 0.02 0.03 0.06
0.02 0.00 0.00 0.00 0.00 0.00 0.00 0.00 0.00 0.00 0.00 0.00 0.00 0.00 0.00 0.00 0.00 0.00 0.00 0.00 0.00 0.00 0.00 0.00 0.00 0.00 0.00 0.00 0.00 0.00 0.00 0.01 0.00 0.00 0.01 0.01 0.01 0.00 0.01 0.01 0.01 0.01 0.01 0.02 0.02 0.01 0.01 0.01 0.04
0.02 0.01 0.01 0.00 0.00 0.00 0.00 0.00 0.00 0.00 0.00 0.00 0.00 0.00 0.00 0.00 0.00 0.00 0.00 0.00 0.00 0.00 0.00 0.00 0.00 0.00 0.00 0.00 0.00 0.00 0.01 0.01 0.00 0.01 0.01 0.01 0.01 0.01 0.01 0.01 0.01 0.02 0.03 0.02 0.01 0.01 0.01 0.01 0.03
0.03 0.01 0.01 0.00 0.00 0.00 0.00 0.00 0.00 0.00 0.00 0.00 0.00 0.00 0.00 0.00 0.00 0.00 0.00 0.00 0.00 0.00 0.00 0.00 0.00 0.00 0.00 0.00 0.01 0.01 0.01 0.01 0.01 0.01 0.01 0.01 0.01 0.01 0.01 0.01 0.01 0.01 0.02 0.01 0.01 0.01 0.01 0.01 0.03
0.01 0.01 0.00 0.00 0.00 0.00 0.00 0.00 0.00 0.00 0.00 0.00 0.00 0.00 0.00 0.00 0.00 0.00 0.00 0.00 0.00 0.00 0.00 0.00 0.00 0.00 0.00 0.00 0.00 0.01 0.01 0.01 0.01 0.01 0.01 0.01 0.02 0.01 0.01 0.01 0.00 0.01 0.01 0.01 0.01 0.02 0.02 0.02 0.01
0.00 0.00 0.00 0.00 0.00 0.00 0.00 0.00 0.00 0.00 0.00 0.00 0.00 0.00 0.00 0.00 0.00 0.00 0.00 0.00 0.00 0.00 0.00 0.00 0.00 0.00 0.00 0.00 0.00 0.00 0.01 0.01 0.01 0.01 0.01 0.01 0.01 0.00 0.00 0.01 0.01 0.01 0.01 0.01 0.01 0.03 0.03 0.02 0.01
0.00 0.00 0.00 0.00 0.00 0.00 0.00 0.00 0.00 0.00 0.00 0.00 0.00 0.00 0.00 0.00 0.00 0.00 0.00 0.00 0.00 0.00 0.00 0.00 0.00 0.00 0.00 0.00 0.00 0.00 0.00 0.01 0.01 0.01 0.01 0.02 0.02 0.02 0.02 0.02 0.02 0.01 0.01 0.01 0.02 0.03 0.03 0.03 0.03
0.00 0.00 0.00 0.00 0.00 0.00 0.00 0.00 0.00 0.00 0.00 0.00 0.00 0.00 0.00 0.00 0.00 0.00 0.00 0.00 0.00 0.00 0.00 0.00 0.00 0.00 0.00 0.00 0.00 0.00 0.00 0.00 0.01 0.01 0.01 0.02 0.03 0.03 0.03 0.04 0.05 0.04 0.02 0.02 0.02 0.03 0.02 0.03 0.04
0.00 0.00 0.00 0.00 0.00 0.00 0.00 0.00 0.00 0.00 0.00 0.00 0.00 0.00 0.00 0.00 0.00 0.00 0.00 0.00 0.00 0.00 0.00 0.00 0.00 0.00 0.00 0.00 0.00 0.00 0.00 0.00 0.00 0.00 0.00 0.00 0.01 0.02 0.01 0.01 0.02 0.02 0.02 0.02 0.02 0.02 0.03 0.04 0.03
0.00 0.00 0.00 0.00 0.00 0.00 0.00 0.00 0.00 0.00 0.00 0.00 0.00 0.00 0.00 0.00 0.00 0.00 0.00 0.00 0.00 0.00 0.00 0.00 0.00 0.00 0.00 0.00 0.00 0.00 0.00 0.00 0.00 0.00 0.00 0.00 0.00 0.00 0.01 0.01 0.01 0.01 0.02 0.02 0.03 0.03 0.03 0.03 0.02
MSLP
1011.34 1012.33 1013.46 1014.57 1015.53 1016.20 1016.55 1016.56 1016.31 1015.92 1015.50 1015.17 1014.98 1014.94 1015.00 1015.07 1015.07 1014.92 1014.60 1014.13 1013.57 1013.02 1012.55 1012.24 1012.12 1012.16 1012.31 1012.50 1012.66 1012.75 1012.76 1012.71 1012.63 1012.58 1012.60 1012.71 1012.88 1013.08 1013.28 1013.44 1013.52 1013.54 1013.51 1013.45 1013.41 1013.39 1013.41 1013.45 1013.48
1011.61 1012.75 1013.99 1015.15 1016.07 1016.66 1016.86 1016.71 1016.29 1015.75 1015.22 1014.81 1014.59 1014.56 1014.64 1014.76 1014.81 1014.72 1014.44 1014.02 1013.51 1013.00 1012.58 1012.31 1012.23 1012.30 1012.47 1012.66 1012.81 1012.89 1012.88 1012.80 1012.70 1012.64 1012.64 1012.71 1012.85 1013.02 1013.18 1013.30 1013.35 1013.35 1013.31 1013.26 1013.23 1013.24 1013.27 1013.33 1013.38
1011.98 1013.24 1014.52 1015.66 1016.50 1016.97 1017.02 1016.72 1016.18 1015.54 1014.95 1014.53 1014.32 1014.31 1014.43 1014.58 1014.65 1014.58 1014.33 1013.94 1013.47 1013.01 1012.65 1012.44 1012.40 1012.50 1012.67 1012.86 1013.00 1013.04 1013.00 1012.89 1012.77 1012.67 1012.64 1012.68 1012.78 1012.90 1013.02 1013.09 1013.12 1013.10 1013.06 1013.02 1013.02 1013.05 1013.11 1013.19 1013.27
1012.47 1013.77 1015.02 1016.08 1016.79 1017.10 1017.02 1016.60 1015.98 1015.32 1014.75 1014.36 1014.20 1014.23 1014.38 1014.54 1014.62 1014.54 1014.30 1013.93 1013.49 1013.08 1012.78 1012.62 1012.62 1012.74 1012.92 1013.09 1013.19 1013.19 1013.10 1012.95 1012.79 1012.67 1012.61 1012.61 1012.67 1012.75 1012.83 1012.87 1012.87 1012.84 1012.81 1012.80 1012.82 1012.89 1012.99 1013.10 1013.20
1013.06 1014.33 1015.49 1016.38 1016.92 1017.07 1016.85 1016.36 1015.73 1015.11 1014.61 1014.32 1014.24 1014.33 1014.50 1014.66 1014.72 1014.62 1014.37 1014.00 1013.60 1013.24 1012.99 1012.88 1012.91 1013.04 1013.19 1013.32 1013.36 1013.30 1013.16 1012.97 1012.77 1012.62 1012.53 1012.51 1012.54 1012.59 1012.64 1012.65 1012.64 1012.62 1012.60 1012.62 1012.68 1012.79 1012.92 1013.07 1013.19
1013.70 1014.88 1015.87 1016.56 1016.90 1016.87 1016.55 1016.03 1015.44 1014.91 1014.55 1014.38 1014.40 1014.55 1014.74 1014.89 1014.91 1014.78 1014.51 1014.15 1013.79 1013.48 1013.28 1013.21 1013.26 1013.37 1013.48 1013.53 1013.50 1013.37 1013.17 1012.93 1012.71 1012.54 1012.44 1012.41 1012.42 1012.45 1012.47 1012.47 1012.45 1012.44 1012.44 1012.50 1012.60 1012.75 1012.92 1013.09 1013.23
1014.35 1015.37 1016.14 1016.60 1016.71 1016.53 1016.13 1015.62 1015.11 1014.73 1014.52 1014.50 1014.63 1014.84 1015.04 1015.17 1015.15 1014.99 1014.70 1014.36 1014.04 1013.78 1013.63 1013.60 1013.64 1013.72 1013.76 1013.74 1013.62 1013.41 1013.15 1012.87 1012.63 1012.46 1012.36 1012.33 1012.33 1012.35 1012.35 1012.33 1012.31 1012.30 1012.32 1012.41 1012.55 1012.74 1012.95 1013.14 1013.30
1014.93 1015.76 1016.29 1016.50 1016.41 1016.08 1015.63 1015.17 1014.78 1014.56 1014.51 1014.63 1014.86 1015.12 1015.32 1015.42 1015.36 1015.18 1014.90 1014.59 1014.32 1014.12 1014.02 1014.01 1014.04 1014.07 1014.04 1013.93 1013.71 1013.43 1013.12 1012.82 1012.58 1012.41 1012.32 1012.29 1012.29 1012.29 1012.27 1012.22 1012.18 1012.17 1012.21 1012.32 1012.49 1012.72 1012.96 1013.17 1013.33
1015.40 1016.02 1016.31 1016.28 1016.01 1015.58 1015.12 1014.72 1014.46 1014.39 1014.50 1014.74 1015.04 1015.33 1015.52 1015.58 1015.50 1015.31 1015.05 1014.80 1014.59 1014.46 1014.41 1014.42 1014.43 1014.41 1014.30 1014.10 1013.81 1013.47 1013.12 1012.81 1012.57 1012.42 1012.35 1012.32 1012.30 1012.28 1012.22 1012.15 1012.08 1012.04 1012.08 1012.20 1012.40 1012.65 1012.91 1013.14 1013.31
1015.72 1016.14 1016.21 1015.99 1015.58 1015.09 1014.65 1014.33 1014.19 1014.26 1014.48 1014.81 1015.14 1015.43 1015.59 1015.62 1015.53 1015.35 1015.13 1014.95 1014.82 1014.76 1014.77 1014.79 1014.79 1014.71 1014.54 1014.26 1013.91 1013.53 1013.16 1012.86 1012.64 1012.51 1012.45 1012.42 1012.38 1012.32 1012.22 1012.09 1011.98 1011.92 1011.94 1012.05 1012.25 1012.51 1012.79 1013.04 1013.22
1015.89 1016.14 1016.03 1015.68 1015.18 1014.67 1014.27 1014.03 1014.00 1014.17 1014.47 1014.82 1015.16 1015.41 1015.54 1015.54 1015.44 1015.29 1015.13 1015.02 1014.98 1015.00 1015.06 1015.10 1015.08 1014.96 1014.74 1014.41 1014.03 1013.63 1013.27 1012.99 1012.80 1012.69 1012.63 1012.59 1012.52 1012.41 1012.25 1012.07 1011.91 1011.80 1011.79 1011.89 1012.08 1012.34 1012.62 1012.87 1013.06
1015.94 1016.05 1015.83 1015.39 1014.86 1014.38 1014.03 1013.87 1013.92 1014.14 1014.46 1014.81 1015.11 1015.30 1015.38 1015.35 1015.26 1015.14 1015.06 1015.04 1015.08 1015.17 1015.26 1015.32 1015.29 1015.15 1014.90 1014.55 1014.16 1013.78 1013.44 1013.19 1013.03 1012.94 1012.88 1012.81 1012.71 1012.55 1012.33 1012.10 1011.88 1011.73 1011.68 1011.75 1011.91 1012.15 1012.42 1012.66 1012.85
1015.91 1015.93 1015.64 1015.17 1014.67 1014.23 1013.95 1013.86 1013.96 1014.19 1014.49 1014.79 1015.01 1015.14 1015.16 1015.11 1015.03 1014.96 1014.95 1015.00 1015.11 1015.26 1015.38 1015.45 1015.42 1015.27 1015.01 1014.67 1014.31 1013.96 1013.66 1013.45 1013.31 1013.23 1013.16 1013.07 1012.93 1012.72 1012.46 1012.18 1011.93 1011.74 1011.65 1011.67 1011.80 1011.99 1012.22 1012.44 1012.61
1015.85 1015.81 1015.50 1015.06 1014.61 1014.24 1014.03 1014.00 1014.11 1014.32 1014.56 1014.77 1014.91 1014.96 1014.94 1014.87 1014.81 1014.79 1014.83 1014.94 1015.10 1015.28 1015.43 1015.50 1015.46 1015.32 1015.08 1014.78 1014.46 1014.16 1013.92 1013.75 1013.63 1013.54 1013.46 1013.33 1013.15 1012.91 1012.62 1012.32 1012.05 1011.84 1011.71 1011.69 1011.76 1011.90 1012.07 1012.24 1012.38
1015.80 1015.73 1015.44 1015.05 1014.67 1014.39 1014.24 1014.23 1014.33 1014.49 1014.65 1014.76 1014.81 1014.80 1014.74 1014.68 1014.64 1014.66 1014.75 1014.90 1015.09 1015.27 1015.41 1015.48 1015.44 1015.31 1015.11 1014.87 1014.62 1014.39 1014.20 1014.05 1013.94 1013.85 1013.73 1013.57 1013.36 1013.10 1012.81 1012.51 1012.24 1012.02 1011.88 1011.82 1011.83 1011.89 1011.98 1012.08 1012.16
1015.78 1015.70 1015.45 1015.13 1014.84 1014.63 1014.53 1014.53 1014.59 1014.67 1014.74 1014.77 1014.74 1014.68 1014.61 1014.56 1014.56 1014.62 1014.74 1014.91 1015.09 1015.25 1015.37 1015.41 1015.38 1015.28 1015.13 1014.95 1014.78 1014.61 1014.48 1014.36 1014.24 1014.12 1013.96 1013.77 1013.54 1013.27 1012.99 1012.72 1012.47 1012.27 1012.12 1012.02 1011.97 1011.95 1011.95 1011.96 1011.97
1015.77 1015.70 1015.51 1015.28 1015.07 1014.93 1014.86 1014.84 1014.85 1014.85 1014.82 1014.76 1014.68 1014.59 1014.53 1014.51 1014.56 1014.66 1014.81 1014.97 1015.13 1015.25 1015.32 1015.34 1015.30 1015.23 1015.14 1015.04 1014.94 1014.85 1014.75 1014.65 1014.52 1014.35 1014.15 1013.92 1013.67 1013.41 1013.16 1012.93 1012.73 1012.56 1012.41 1012.29 1012.18 1012.07 1011.98 1011.90 1011.83
1015.76 1015.72 1015.60 1015.46 1015.34 1015.25 1015.20 1015.15 1015.08 1014.99 1014.87 1014.74 1014.61 1014.52 1014.49 1014.53 1014.63 1014.78 1014.94 1015.09 1015.21 1015.27 1015.29 1015.27 1015.23 1015.18 1015.14 1015.12 1015.10 1015.07 1015.02 1014.92 1014.76 1014.56 1014.31 1014.04 1013.77 1013.52 1013.31 1013.13 1012.98 1012.85 1012.72 1012.58 1012.41 1012.24 1012.05 1011.89 1011.75
1015.72 1015.74 1015.71 1015.68 1015.64 1015.61 1015.55 1015.45 1015.30 1015.10 1014.88 1014.68 1014.53 1014.45 1014.47 1014.57 1014.74 1014.93 1015.11 1015.24 1015.31 1015.31 1015.27 1015.21 1015.16 1015.14 1015.16 1015.20 1015.26 1015.29 1015.27 1015.17 1014.99 1014.74 1014.44 1014.13 1013.85 1013.62 1013.44 1013.31 1013.22 1013.13 1013.02 1012.86 1012.66 1012.42 1012.17 1011.93 1011.74
1015.63 1015.75 1015.85 1015.93 1015.99 1016.00 1015.92 1015.76 1015.50 1015.19 1014.87 1014.59 1014.41 1014.35 1014.42 1014.60 1014.83 1015.08 1015.28 1015.39 1015.42 1015.37 1015.27 1015.17 1015.10 1015.10 1015.16 1015.28 1015.40 1015.48 1015.49 1015.40 1015.19 1014.91 1014.57 1014.24 1013.94 1013.72 1013.57 1013.49 1013.44 1013.39 1013.29 1013.13 1012.90 1012.62 1012.31 1012.03 1011.81
1015.50 1015.76 1016.02 1016.25 1016.41 1016.45 1016.35 1016.10 1015.72 1015.27 1014.83 1014.46 1014.24 1014.19 1014.30 1014.55 1014.86 1015.16 1015.39 1015.51 1015.51 1015.41 1015.26 1015.12 1015.05 1015.06 1015.16 1015.32 1015.50 1015.63 1015.67 1015.59 1015.38 1015.07 1014.71 1014.36 1014.06 1013.84 1013.72 1013.66 1013.65 1013.61 1013.53 1013.36 1013.12 1012.81 1012.48 1012.19 1011.95
1015.38 1015.82 1016.26 1016.65 1016.92 1017.00 1016.86 1016.50 1015.98 1015.37 1014.78 1014.31 1014.02 1013.96 1014.10 1014.40 1014.78 1015.14 1015.41 1015.55 1015.54 1015.41 1015.24 1015.07 1014.98 1015.00 1015.12 1015.32 1015.54 1015.71 1015.79 1015.72 1015.53 1015.22 1014.86 1014.51 1014.21 1014.00 1013.88 1013.84 1013.84 1013.81 1013.73 1013.56 1013.31 1012.99 1012.66 1012.37 1012.14
1015.30 1015.94 1016.59 1017.15 1017.52 1017.63 1017.44 1016.97 1016.29 1015.50 1014.74 1014.13 1013.75 1013.65 1013.80 1014.14 1014.58 1015.01 1015.33 1015.49 1015.50 1015.37 1015.18 1015.00 1014.90 1014.91 1015.04 1015.26 1015.51 1015.72 1015.82 1015.80 1015.63 1015.35 1015.01 1014.66 1014.37 1014.17 1014.06 1014.02 1014.00 1013.97 1013.88 1013.71 1013.45 1013.15 1012.83 1012.55 1012.34
1015.31 1016.17 1017.02 1017.74 1018.20 1018.32 1018.07 1017.47 1016.62 1015.64 1014.69 1013.93 1013.44 1013.28 1013.41 1013.78 1014.27 1014.75 1015.13 1015.34 1015.38 1015.27 1015.09 1014.90 1014.79 1014.80 1014.92 1015.15 1015.41 1015.64 1015.78 1015.79 1015.66 1015.42 1015.11 1014.80 1014.53 1014.34 1014.22 1014.17 1014.14 1014.09 1013.98 1013.80 1013.55 1013.25 1012.95 1012.70 1012.51
1015.44 1016.49 1017.52 1018.36 1018.89 1019.01 1018.68 1017.95 1016.93 1015.76 1014.64 1013.72 1013.11 1012.87 1012.97 1013.34 1013.86 1014.39 1014.83 1015.10 1015.19 1015.12 1014.96 1014.78 1014.66 1014.66 1014.77 1014.98 1015.24 1015.48 1015.64 1015.69 1015.60 1015.42 1015.17 1014.90 1014.65 1014.47 1014.35 1014.27 1014.22 1014.14 1014.01 1013.82 1013.57 1013.29 1013.02 1012.79 1012.62
1015.68 1016.88 1018.03 1018.95 1019.51 1019.60 1019.19 1018.34 1017.16 1015.83 1014.55 1013.49 1012.77 1012.45 1012.51 1012.86 1013.40 1013.97 1014.46 1014.80 1014.95 1014.93 1014.80 1014.64 1014.52 1014.50 1014.59 1014.77 1015.01 1015.25 1015.42 1015.50 1015.47 1015.34 1015.14 1014.92 1014.71 1014.54 1014.42 1014.32 1014.23 1014.12 1013.97 1013.77 1013.52 1013.26 1013.01 1012.80 1012.66
1015.98 1017.26 1018.46 1019.41 1019.95 1019.98 1019.50 1018.54 1017.25 1015.81 1014.42 1013.25 1012.45 1012.06 1012.07 1012.40 1012.93 1013.53 1014.06 1014.45 1014.65 1014.69 1014.60 1014.47 1014.36 1014.32 1014.39 1014.54 1014.75 1014.97 1015.15 1015.26 1015.27 1015.19 1015.05 1014.88 1014.70 1014.55 1014.42 1014.31 1014.19 1014.05 1013.88 1013.66 1013.42 1013.18 1012.95 1012.76 1012.62
1016.29 1017.56 1018.74 1019.64 1020.12 1020.08 1019.52 1018.49 1017.14 1015.65 1014.21 1013.00 1012.15 1011.71 1011.68 1011.98 1012.50 1013.10 1013.65 1014.07 1014.32 1014.41 1014.37 1014.27 1014.17 1014.13 1014.17 1014.30 1014.48 1014.68 1014.85 1014.97 1015.01 1014.99 1014.90 1014.77 1014.64 1014.50 1014.37 1014.24 1014.10 1013.94 1013.75 1013.53 1013.29 1013.06 1012.85 1012.67 1012.54
1016.51 1017.70 1018.77 1019.55 1019.92 1019.81 1019.19 1018.14 1016.80 1015.32 1013.91 1012.72 1011.88 1011.44 1011.38 1011.65 1012.13 1012.70 1013.24 1013.67 1013.95 1014.07 1014.08 1014.01 1013.94 1013.91 1013.94 1014.05 1014.20 1014.38 1014.55 1014.68 1014.75 1014.76 1014.71 1014.64 1014.53 1014.42 1014.29 1014.16 1014.00 1013.82 1013.62 1013.40 1013.17 1012.95 1012.75 1012.58 1012.44
1016.58 1017.61 1018.50 1019.12 1019.36 1019.15 1018.50 1017.48 1016.20 1014.82 1013.52 1012.42 1011.64 1011.22 1011.16 1011.39 1011.82 1012.34 1012.84 1013.25 1013.53 1013.67 1013.71 1013.69 1013.65 1013.64 1013.69 1013.79 1013.93 1014.10 1014.27 1014.40 1014.49 1014.53 1014.53 1014.49 1014.42 1014.32 1014.21 1014.07 1013.91 1013.73 1013.52 1013.30 1013.07 1012.86 1012.67 1012.51 1012.36
Thickness
5794 5791 5785 5771 5751 5735 5732 5743 5752 5755 5758 5763 5766 5763 5755 5748 5743 5740 5760 5768 5768 5766 5765 5763 5761 5760 5758 5756 5755 5753 5753 5752 5752 5753 5753 5753 5754 5754 5754 5755 5755 5755 5756 5756 5757 5757 5758 5759 5759
5794 5789 5776 5758 5738 5724 5731 5746 5750 5756 5762 5765 5763 5759 5753 5749 5755 5756 5760 5765 5765 5763 5761 5759 5757 5756 5755 5753 5752 5750 5749 5749 5749 5749 5749 5750 5751 5751 5752 5752 5753 5753 5754 5754 5754 5755 5755 5756 5757
5793 5785 5763 5746 5734 5728 5735 5748 5752 5760 5766 5763 5755 5753 5749 5747 5753 5755 5759 5762 5761 5759 5757 5755 5753 5752 5751 5749 5749 5747 5746 5746 5746 5746 5746 5747 5748 5749 5749 5750 5750 5751 5751 5752 5752 5752 5753 5754 5754
5786 5770 5757 5742 5735 5741 5746 5752 5756 5757 5760 5760 5753 5745 5747 5752 5753 5756 5758 5758 5756 5754 5752 5750 5749 5747 5746 5745 5744 5743 5743 5743 5743 5742 5743 5743 5744 5746 5746 5747 5748 5748 5749 5750 5750 5751 5751 5751 5752
5779 5760 5745 5736 5739 5747 5753 5757 5758 5753 5752 5752 5749 5739 5740 5750 5754 5754 5753 5752 5750 5748 5747 5745 5744 5742 5742 5741 5740 5740 5740 5740 5739 5739 5739 5739 5740 5742 5743 5744 5745 5746 5747 5748 5748 5749 5749 5749 5750
5763 5753 5735 5729 5738 5748 5754 5758 5755 5750 5749 5749 5745 5737 5737 5748 5748 5748 5748 5746 5744 5742 5741 5739 5738 5738 5737 5736 5736 5735 5735 5735 5735 5735 5735 5736 5736 5738 5739 5740 5742 5743 5744 5745 5746 5747 5747 5748 5748
5756 5744 5735 5735 5735 5741 5751 5757 5750 5746 5744 5745 5745 5733 5734 5741 5744 5744 5743 5740 5738 5736 5735 5733 5731 5731 5730 5730 5730 5729 5730 5730 5730 5730 5731 5731 5732 5733 5735 5736 5738 5739 5741 5742 5743 5744 5745 5746 5746
5762 5746 5736 5733 5732 5737 5751 5755 5753 5748 5744 5751 5747 5731 5728 5737 5740 5738 5736 5733 5731 5730 5728 5726 5724 5723 5723 5722 5722 5723 5723 5723 5724 5724 5725 5726 5727 5728 5729 5731 5733 5735 5737 5739 5741 5742 5743 5743 5744
5763 5738 5728 5733 5734 5740 5750 5749 5751 5753 5747 5745 5744 5739 5739 5739 5736 5731 5727 5724 5723 5722 5720 5719 5717 5716 5715 5715 5715 5715 5715 5716 5716 5717 5718 5720 5721 5722 5724 5726 5728 5730 5733 5735 5737 5738 5740 5741 5741
5751 5731 5736 5746 5746 5744 5747 5746 5746 5743 5737 5735 5735 5736 5737 5733 5728 5723 5719 5716 5715 5714 5713 5712 5711 5710 5709 5708 5707 5707 5707 5708 5708 5709 5711 5712 5714 5716 5718 5721 5723 5726 5728 5730 5733 5734 5736 5737 5738
5749 5739 5746 5750 5753 5751 5746 5745 5747 5737 5729 5732 5731 5729 5729 5726 5722 5718 5715 5713 5711 5709 5708 5707 5705 5704 5703 5701 5701 5700 5699 5700 5701 5702 5703 5705 5707 5709 5712 5714 5717 5720 5723 5725 5728 5729 5731 5733 5734
5746 5747 5750 5751 5755 5751 5746 5744 5739 5737 5737 5742 5738 5733 5727 5722 5718 5715 5712 5709 5707 5705 5704 5702 5701 5698 5697 5695 5694 5693 5693 5693 5693 5695 5696 5697 5700 5702 5705 5708 5710 5713 5716 5719 5722 5724 5727 5729 5730
5741 5744 5749 5752 5752 5749 5746 5740 5737 5738 5743 5741 5736 5730 5724 5720 5717 5714 5711 5707 5705 5702 5700 5698 5696 5693 5691 5690 5688 5688 5687 5687 5687 5688 5689 5691 5692 5695 5698 5701 5704 5707 5710 5713 5716 5719 5722 5724 5726
5742 5743 5744 5747 5747 5746 5740 5736 5734 5737 5739 5735 5730 5725 5722 5718 5715 5710 5707 5704 5701 5699 5697 5695 5692 5689 5687 5685 5683 5683 5682 5682 5682 5682 5682 5684 5686 5688 5691 5694 5697 5701 5704 5708 5711 5713 5716 5719 5721
5743 5737 5737 5741 5741 5740 5737 5726 5729 5738 5734 5729 5725 5722 5718 5716 5713 5709 5706 5703 5700 5697 5695 5692 5689 5686 5683 5681 5679 5678 5677 5677 5676 5676 5677 5678 5680 5682 5685 5687 5691 5694 5698 5702 5705 5708 5711 5713 5716
5733 5725 5719 5733 5736 5736 5727 5714 5732 5736 5730 5722 5720 5717 5714 5713 5711 5708 5706 5703 5700 5696 5692 5689 5688 5683 5680 5678 5676 5675 5673 5672 5672 5672 5672 5673 5675 5677 5679 5681 5684 5688 5692 5695 5699 5702 5704 5708 5711
5716 5709 5713 5724 5734 5731 5722 5716 5730 5732 5727 5720 5717 5714 5711 5709 5709 5707 5705 5702 5699 5695 5691 5687 5684 5681 5678 5676 5674 5672 5670 5669 5668 5668 5669 5669 5671 5673 5675 5676 5679 5682 5686 5689 5693 5696 5698 5702 5705
5706 5707 5711 5717 5728 5724 5717 5718 5727 5728 5725 5719 5715 5711 5709 5707 5707 5707 5705 5701 5698 5694 5690 5686 5683 5680 5677 5675 5673 5670 5669 5668 5667 5666 5666 5667 5668 5669 5671 5672 5674 5677 5679 5683 5686 5690 5693 5696 5700
5721 5715 5713 5720 5730 5721 5715 5716 5723 5724 5721 5716 5712 5709 5707 5707 5709 5707 5704 5701 5697 5693 5689 5685 5681 5679 5676 5673 5670 5667 5665 5665 5665 5664 5664 5664 5665 5666 5667 5668 5670 5672 5674 5677 5680 5684 5686 5689 5694
5719 5713 5713 5720 5727 5721 5713 5713 5720 5722 5720 5720 5716 5711 5709 5707 5706 5705 5703 5699 5696 5692 5688 5684 5681 5678 5675 5672 5669 5666 5664 5663 5662 5662 5662 5662 5662 5662 5663 5664 5665 5667 5669 5671 5674 5677 5680 5683 5688
5715 5713 5714 5714 5718 5716 5712 5706 5714 5721 5723 5723 5720 5716 5712 5709 5706 5704 5701 5698 5695 5691 5688 5685 5681 5678 5675 5672 5669 5667 5664 5662 5660 5659 5659 5659 5659 5659 5659 5660 5661 5662 5664 5666 5668 5671 5674 5676 5681
5710 5723 5721 5715 5703 5694 5701 5683 5704 5712 5716 5719 5718 5715 5712 5711 5708 5704 5701 5698 5695 5693 5689 5685 5682 5678 5675 5672 5668 5665 5661 5658 5657 5655 5655 5656 5656 5656 5656 5656 5657 5658 5659 5661 5664 5667 5669 5671 5673
5718 5722 5717 5711 5700 5689 5692 5683 5693 5708 5711 5716 5717 5716 5714 5712 5709 5706 5703 5700 5698 5694 5690 5686 5682 5679 5676 5672 5669 5665 5661 5658 5656 5655 5654 5654 5654 5653 5653 5653 5653 5654 5655 5657 5659 5662 5664 5667 5669
5719 5710 5701 5690 5684 5676 5689 5681 5686 5699 5711 5718 5721 5719 5717 5714 5711 5708 5705 5702 5698 5695 5691 5687 5682 5679 5676 5672 5669 5665 5662 5659 5657 5655 5653 5651 5651 5651 5651 5651 5651 5651 5652 5654 5656 5658 5660 5662 5665
5713 5694 5674 5673 5663 5670 5687 5683 5690 5713 5719 5722 5723 5721 5719 5715 5711 5707 5704 5701 5698 5695 5691 5687 5683 5679 5676 5673 5670 5666 5663 5660 5657 5654 5652 5650 5649 5649 5649 5649 5649 5649 5650 5652 5653 5655 5656 5658 5660
5706 5697 5674 5665 5661 5667 5682 5680 5701 5722 5726 5728 5727 5724 5720 5715 5712 5709 5706 5703 5699 5696 5692 5688 5684 5680 5677 5674 5671 5668 5664 5661 5658 5655 5653 5650 5649 5648 5649 5648 5649 5649 5649 5651 5651 5652 5653 5655 5657
5701 5693 5691 5671 5669 5665 5672 5688 5709 5725 5726 5726 5725 5722 5718 5716 5714 5711 5708 5705 5701 5697 5694 5690 5686 5682 5679 5676 5672 5669 5665 5662 5659 5656 5654 5652 5650 5650 5649 5649 5649 5649 5649 5649 5649 5649 5650 5652 5653
5709 5691 5677 5669 5661 5659 5670 5682 5692 5714 5719 5722 5721 5720 5719 5718 5715 5712 5709 5706 5703 5700 5696 5692 5688 5684 5681 5677 5673 5671 5667 5663 5660 5657 5655 5653 5651 5650 5649 5648 5648 5648 5648 5648 5648 5648 5649 5649 5650
5700 5691 5677 5663 5664 5655 5658 5677 5710 5718 5723 5722 5722 5723 5721 5720 5717 5714 5712 5709 5705 5701 5697 5693 5689 5686 5682 5678 5675 5671 5668 5665 5662 5659 5656 5654 5652 5651 5649 5648 5648 5647 5647 5647 5646 5646 5647 5647 5648
5712 5699 5683 5674 5668 5658 5655 5677 5722 5723 5725 5726 5725 5726 5725 5723 5720 5717 5714 5709 5705 5702 5699 5695 5691 5687 5684 5680 5676 5672 5669 5666 5663 5660 5657 5655 5653 5652 5650 5649 5648 5647 5647 5646 5646 5645 5645 5645 5645